Weather History for Fort Campbell, KY

Change the Weather History Date:

Wednesday, January 25, 2012

  Actual Average Record
Temperature  
Mean Temperature 36 °F -  
Max Temperature 41 °F 44 °F 59 °F (2005)
Min Temperature 31 °F 26 °F 6 °F (2000)
Degree Days  
Heating Degree Days 29    
Moisture  
Dew Point 37 °F    
Average Humidity 97    
Maximum Humidity 100    
Minimum Humidity 86    
Precipitation  
Precipitation 0.20 in - - ()
Sea Level Pressure  
Sea Level Pressure 30.16 in    
Wind  
Wind Speed 6 mph (ENE)    
Max Wind Speed 10 mph    
Max Gust Speed -    
Visibility 8 miles    
Events Rain    
Averages and records for this station are not official NWS values.
T = Trace of Precipitation, MM = Missing Value Source: NWS Daily Summary

Daily Weather History Graph

Daily Weather History Graph

Search for Another Location

Airport:

Trip Planner

Search our weather history database for the weather conditions in past years. The results will help you decide how hot, cold, wet, or windy it might be!

Date:

Astronomy

Jan. 25, 2012 Rise Set
Actual Time 6:57 AM CST 5:07 PM CST
Civil Twilight 6:29 AM CST 5:35 PM CST
Nautical Twilight 5:58 AM CST 6:06 PM CST
Astronomical Twilight 5:27 AM CST 6:37 PM CST
Moon 8:01 AM CST (1/25) 7:54 PM CST (1/25)
Length of Visible Light 11h 05m
Length of Day
10h 10m
Waxing Crescent, 7% of the Moon is Illuminated
Jan 25
Waxing Crescent
Jan 30
First Quarter
Feb 7
Full
Feb 14
Last Quarter
Feb 21
New

Hourly Weather History & Observations

Time (CST) Temp. Windchill Dew Point Humidity Pressure Visibility Wind Dir Wind Speed Gust Speed Precip Events Conditions
12:55 AM 34.3 °F 30.2 °F 30.6 °F 86% 30.30 in 10.0 mi NE 4.6 mph - N/A   Clear
1:55 AM 31.6 °F 26.0 °F 29.5 °F 92% 30.29 in 10.0 mi ENE 5.8 mph - N/A   Clear
2:55 AM 32.0 °F 26.4 °F 29.8 °F 92% 30.29 in 10.0 mi NE 5.8 mph - N/A   Clear
3:55 AM 32.9 °F 25.9 °F 31.1 °F 93% 30.26 in 10.0 mi NNE 8.1 mph - N/A   Partly Cloudy
4:55 AM 32.5 °F 27.1 °F 31.1 °F 94% 30.26 in 10.0 mi ENE 5.8 mph - N/A   Partly Cloudy
5:55 AM 33.4 °F 29.1 °F 32.5 °F 96% 30.26 in 10.0 mi East 4.6 mph - N/A   Mostly Cloudy
6:55 AM 34.0 °F 27.2 °F 32.4 °F 94% 30.25 in 10.0 mi East 8.1 mph - N/A   Mostly Cloudy
7:30 AM 35.6 °F 30.7 °F 32.0 °F 87% 30.27 in 10.0 mi ENE 5.8 mph - N/A   Light Drizzle
7:40 AM 35.6 °F 31.7 °F 33.8 °F 93% 30.26 in 10.0 mi NE 4.6 mph - N/A   Partly Cloudy
7:55 AM 34.9 °F 29.9 °F 33.4 °F 94% 30.24 in 10.0 mi NE 5.8 mph - 0.00 in   Clear
8:55 AM 35.6 °F 31.7 °F 33.8 °F 93% 30.30 in 10.0 mi NW 4.6 mph - N/A   Overcast
9:28 AM 37.4 °F - 33.8 °F 87% 30.25 in 10.0 mi Calm Calm - N/A Rain Light Rain
9:55 AM 36.7 °F - 35.4 °F 95% 30.25 in 6.0 mi Calm Calm - 0.02 in Rain Light Rain
10:55 AM 37.6 °F 30.5 °F 37.4 °F 99% 30.20 in 6.0 mi NE 10.4 mph - 0.08 in Rain Light Rain
11:55 AM 39.2 °F 35.0 °F 38.8 °F 99% 30.20 in 10.0 mi South 5.8 mph - 0.03 in   Light Drizzle
12:51 PM 39.2 °F 35.9 °F 39.2 °F 100% 30.17 in 5.0 mi NNE 4.6 mph - N/A Rain Light Rain
12:55 PM 39.2 °F 33.6 °F 39.0 °F 99% 30.15 in 5.0 mi NNE 8.1 mph - 0.02 in Rain Light Rain
1:55 PM 40.1 °F 36.9 °F 40.1 °F 100% 30.15 in 6.0 mi Variable 4.6 mph - 0.02 in Rain Light Rain
2:19 PM 41.0 °F 35.8 °F 41.0 °F 100% 30.13 in 6.0 mi NE 8.1 mph - N/A   Drizzle
2:44 PM 41.0 °F 37.1 °F 41.0 °F 100% 30.13 in 8.0 mi NNE 5.8 mph - N/A   Overcast
2:55 PM 40.1 °F 36.1 °F 40.1 °F 100% 30.14 in 9.0 mi Variable 5.8 mph - 0.03 in   Overcast
2:58 PM 39.2 °F 35.9 °F 39.2 °F 100% 30.14 in 8.0 mi Variable 4.6 mph - N/A   Overcast
3:02 PM 39.2 °F 32.5 °F 39.2 °F 100% 30.13 in 8.0 mi NE 10.4 mph - N/A   Overcast
3:27 PM 39.2 °F 32.5 °F 39.2 °F 100% 30.12 in 8.0 mi NE 10.4 mph - N/A   Overcast
3:48 PM 41.0 °F 35.2 °F 41.0 °F 100% 30.12 in 7.0 mi NE 9.2 mph - N/A   Overcast
3:55 PM 39.9 °F 33.4 °F 39.9 °F 100% 30.11 in 8.0 mi NE 10.4 mph - N/A   Overcast
4:12 PM 39.2 °F 32.5 °F 39.2 °F 100% 30.10 in 9.0 mi ENE 10.4 mph - N/A   Overcast
4:55 PM 38.3 °F 31.9 °F 38.3 °F 100% 30.10 in 8.0 mi ENE 9.2 mph - N/A   Mostly Cloudy
4:58 PM 39.2 °F 33.0 °F 39.2 °F 100% 30.09 in 8.0 mi ENE 9.2 mph - N/A   Scattered Clouds
5:55 PM 38.5 °F 32.7 °F 38.5 °F 100% 30.10 in 9.0 mi East 8.1 mph - N/A   Mostly Cloudy
5:57 PM 39.2 °F 34.2 °F 39.2 °F 100% 30.10 in 9.0 mi East 6.9 mph - N/A   Overcast
6:15 PM 39.2 °F 33.6 °F 39.2 °F 100% 30.10 in 8.0 mi East 8.1 mph - N/A   Overcast
6:55 PM 38.7 °F 33.6 °F 38.7 °F 100% 30.09 in 7.0 mi East 6.9 mph - N/A   Overcast
7:17 PM 39.2 °F 33.0 °F 39.2 °F 100% 30.08 in 6.0 mi East 9.2 mph - N/A   Overcast
7:55 PM 39.4 °F 34.5 °F 39.4 °F 100% 30.07 in 7.0 mi East 6.9 mph - N/A   Overcast
8:55 PM 40.5 °F 34.1 °F 40.5 °F 100% 30.04 in 10.0 mi East 10.4 mph - N/A   Mostly Cloudy
9:55 PM 40.8 °F 34.5 °F 40.6 °F 99% 30.01 in 10.0 mi East 10.4 mph - N/A   Overcast
10:55 PM 41.4 °F 36.2 °F 41.4 °F 100% 29.98 in 10.0 mi East 8.1 mph - N/A   Overcast
11:55 PM 41.7 °F 36.1 °F 41.7 °F 100% 29.93 in 10.0 mi ESE 9.2 mph - N/A   Scattered Clouds